Ocean City, MD

12:39 AM EDT on May 27, 2018 (GMT -0400)
Ocean City Municipal

Weather History for KOXB - January, 2014

Change the Weather History Date:

Saturday, January 11, 2014

  Actual Average (KSBY) Record (KSBY)
Temperature  
Mean Temperature 50 °F -  
Max Temperature 55 °F 43 °F 69 °F (2014)
Min Temperature 46 °F 26 °F -10 °F (1942)
Degree Days  
Heating Degree Days 14    
Moisture  
Dew Point 51 °F    
Average Humidity 98    
Maximum Humidity 100    
Minimum Humidity 93    
Precipitation  
Precipitation 0.45 in - - ()
Sea Level Pressure  
Sea Level Pressure 29.85 in    
Wind  
Wind Speed 7 mph (SSW)    
Max Wind Speed 20 mph    
Max Gust Speed 31 mph    
Visibility 3 miles    
Events Fog , Rain    
Averages and records for this station are not official NWS values.
T = Trace of Precipitation, MM = Missing Value Source: NWS Daily Summary

Daily Weather History Graph

Daily Weather History Graph

Search for Another Location

Airport or City:

Astronomy

Jan. 11, 2014 Rise Set
Actual Time 7:17 AM EST 5:00 PM EST
Civil Twilight 6:48 AM EST 5:29 PM EST
Nautical Twilight 6:15 AM EST 6:01 PM EST
Astronomical Twilight 5:43 AM EST 6:33 PM EST
Moon 1:41 PM EST (1/11) 3:20 AM EST (1/11)
Length of Visible Light 10h 41m
Length of Day
9h 42m
Waxing Gibbous, 83% of the Moon is Illuminated
Jan 11
Waxing Gibbous
Jan 15
Full
Jan 24
Last Quarter
Jan 30
New
Feb 6
First Quarter

Hourly Weather History & Observations

Time (EST) Temp. Dew Point Humidity Pressure Visibility Wind Dir Wind Speed Gust Speed Precip Events Conditions
12:53 AM 48.9 °F 48.0 °F 97% 30.13 in 10.0 mi Calm Calm - N/A   Clear
1:23 AM 48.9 °F 48.0 °F 97% 30.12 in 10.0 mi Calm Calm - N/A   Mostly Cloudy
1:43 AM 48.9 °F 48.0 °F 97% 30.11 in 10.0 mi Calm Calm - N/A   Mostly Cloudy
1:53 AM 48.9 °F 48.0 °F 97% 30.11 in 10.0 mi Variable 3.5 mph - N/A   Mostly Cloudy
2:53 AM 50.0 °F 48.9 °F 96% 30.09 in 5.0 mi Variable 5.8 mph - 0.01 in Rain Light Rain
3:01 AM 50.0 °F 48.0 °F 93% 30.09 in 4.0 mi SSW 5.8 mph - 0.01 in Rain Light Rain
3:10 AM 52.0 °F 50.0 °F 93% 30.07 in 3.0 mi South 9.2 mph - 0.01 in Rain Light Rain
3:24 AM 52.0 °F 51.1 °F 97% 30.07 in 5.0 mi South 8.1 mph 17.3 mph 0.02 in Rain Light Rain
3:35 AM 51.1 °F 50.0 °F 96% 30.07 in 2.5 mi South 8.1 mph - 0.05 in Rain Light Rain
3:38 AM 52.0 °F 50.0 °F 93% 30.06 in 1.5 mi South 12.7 mph 19.6 mph 0.13 in Rain Heavy Rain
3:47 AM 55.4 °F 53.6 °F 94% 30.06 in 2.0 mi Variable 6.9 mph 20.7 mph 0.16 in Rain Rain
3:49 AM 55.4 °F 53.6 °F 94% 30.06 in 3.0 mi South 8.1 mph 20.7 mph 0.16 in Rain Light Rain
3:53 AM 54.0 °F 53.1 °F 97% 30.06 in 4.0 mi South 10.4 mph - 0.16 in Rain Light Rain
3:58 AM 53.1 °F 52.0 °F 96% 30.07 in 2.5 mi SSW 8.1 mph - 0.01 in Rain Light Rain
4:07 AM 55.0 °F 53.1 °F 93% 30.05 in 1.2 mi South 8.1 mph - 0.08 in Rain Heavy Rain
4:15 AM 54.0 °F 53.1 °F 97% 30.03 in 2.0 mi South 10.4 mph 20.7 mph 0.10 in Rain Rain
4:28 AM 55.0 °F 54.0 °F 96% 30.03 in 4.0 mi South 8.1 mph 24.2 mph 0.12 in Rain Light Rain
4:38 AM 54.0 °F 53.1 °F 97% 30.02 in 1.8 mi Variable 6.9 mph 16.1 mph 0.12 in Rain Light Rain
4:53 AM 53.1 °F 52.0 °F 96% 30.02 in 1.0 mi South 9.2 mph 18.4 mph 0.13 in Rain Light Rain
5:05 AM 53.1 °F 52.0 °F 96% 30.02 in 0.8 mi South 10.4 mph 18.4 mph 0.00 in Rain Light Rain
5:14 AM 55.0 °F 54.0 °F 96% 30.01 in 1.2 mi South 10.4 mph 25.3 mph 0.01 in Rain Light Rain
5:21 AM 54.0 °F 54.0 °F 100% 30.02 in 1.2 mi South 9.2 mph 20.7 mph 0.01 in Rain Light Rain
5:30 AM 53.1 °F 53.1 °F 100% 30.02 in 1.0 mi Variable 4.6 mph - 0.03 in Rain Rain
5:43 AM 52.0 °F 52.0 °F 100% 30.01 in 0.8 mi Variable 4.6 mph - 0.04 in Rain Light Rain
5:51 AM 53.6 °F 51.8 °F 94% 29.99 in 0.8 mi South 9.2 mph - 0.04 in Rain Light Rain
5:53 AM 53.1 °F 53.1 °F 100% 29.99 in 0.8 mi South 9.2 mph - 0.04 in Rain Light Rain
6:06 AM 53.1 °F 53.1 °F 100% 29.99 in 0.8 mi Variable 6.9 mph 18.4 mph 0.00 in   Mist
6:24 AM 53.1 °F 52.0 °F 96% 29.97 in 2.0 mi Variable 6.9 mph - 0.01 in Rain Light Rain
6:37 AM 53.1 °F 52.0 °F 96% 29.96 in 1.2 mi South 8.1 mph - 0.02 in Rain Light Rain
6:48 AM 53.6 °F 53.6 °F 100% 29.96 in 0.5 mi Variable 6.9 mph - 0.02 in Fog Fog
6:53 AM 53.1 °F 53.1 °F 100% 29.95 in 0.5 mi South 8.1 mph - 0.02 in Fog Fog
7:21 AM 52.0 °F 52.0 °F 100% 29.94 in 0.2 mi Calm Calm - 0.00 in Fog Fog
7:53 AM 50.0 °F 48.9 °F 96% 29.93 in 0.2 mi Variable 4.6 mph - 0.00 in Fog Fog
8:39 AM 50.0 °F 48.9 °F 96% 29.91 in 0.5 mi Variable 5.8 mph - N/A Fog Fog
8:50 AM 50.0 °F 48.2 °F 94% 29.91 in 0.2 mi Variable 4.6 mph - N/A Fog Fog
8:53 AM 50.0 °F 48.9 °F 96% 29.91 in 0.2 mi SW 5.8 mph - 0.00 in Fog , Rain Light Rain
9:53 AM 52.0 °F 51.1 °F 97% 29.87 in 0.2 mi Variable 4.6 mph - 0.01 in Fog Fog
10:53 AM 52.0 °F 51.1 °F 97% 29.82 in 0.2 mi SW 10.4 mph - N/A Fog Fog
11:53 AM 54.0 °F 53.1 °F 97% 29.76 in 0.5 mi SSW 12.7 mph 21.9 mph 0.07 in Fog , Rain Heavy Rain
12:03 PM 54.0 °F 53.1 °F 97% 29.75 in 2.0 mi SSW 11.5 mph 21.9 mph 0.01 in Rain Light Rain
12:20 PM 54.0 °F 53.1 °F 97% 29.74 in 1.0 mi SW 13.8 mph 20.7 mph 0.01 in Rain Light Rain
12:32 PM 55.0 °F 54.0 °F 96% 29.73 in 0.5 mi SSW 15.0 mph 27.6 mph 0.01 in Fog , Rain Light Rain
12:41 PM 55.0 °F 55.0 °F 100% 29.72 in 0.2 mi SW 19.6 mph 31.1 mph 0.01 in Fog Fog
12:53 PM 54.0 °F 54.0 °F 100% 29.70 in 0.2 mi SW 18.4 mph 27.6 mph 0.01 in Fog Fog
1:53 PM 54.0 °F 54.0 °F 100% 29.65 in 0.2 mi SSW 15.0 mph 25.3 mph N/A Fog Fog
2:53 PM 52.0 °F 52.0 °F 100% 29.60 in 0.2 mi SSW 11.5 mph - N/A Fog Fog
3:53 PM 51.1 °F 51.1 °F 100% 29.55 in 0.2 mi SW 12.7 mph 20.7 mph N/A Fog Fog
7:28 PM 48.9 °F 48.9 °F 100% 29.55 in 3.0 mi SSW 11.5 mph - 0.00 in   Overcast
7:46 PM 53.1 °F 53.1 °F 100% 29.55 in 9.0 mi SW 11.5 mph 19.6 mph 0.00 in Rain Light Rain
7:53 PM 53.1 °F 53.1 °F 100% 29.54 in 10.0 mi SSW 15.0 mph 23.0 mph 0.00 in Rain Light Rain
8:09 PM 48.9 °F 48.9 °F 100% 29.53 in 2.5 mi SSW 8.1 mph - 0.00 in   Overcast
8:17 PM 48.0 °F 48.0 °F 100% 29.54 in 1.2 mi SSW 10.4 mph 18.4 mph 0.00 in   Overcast
8:29 PM 46.9 °F 46.9 °F 100% 29.52 in 0.8 mi SSW 9.2 mph - 0.00 in   Mist
8:53 PM 48.0 °F 48.0 °F 100% 29.53 in 0.8 mi SW 12.7 mph 19.6 mph 0.00 in   Mist
9:01 PM 48.9 °F 48.9 °F 100% 29.54 in 2.0 mi SW 15.0 mph 23.0 mph N/A   Overcast
9:09 PM 50.0 °F 50.0 °F 100% 29.56 in 9.0 mi SW 15.0 mph 21.9 mph N/A   Overcast
9:27 PM 50.0 °F 50.0 °F 100% 29.54 in 10.0 mi SSW 18.4 mph 25.3 mph N/A   Overcast
9:42 PM 50.0 °F 50.0 °F 100% 29.55 in 10.0 mi SW 16.1 mph 26.5 mph N/A   Overcast
9:49 PM 50.0 °F 50.0 °F 100% 29.55 in 10.0 mi SSW 15.0 mph 23.0 mph N/A   Overcast
9:53 PM 50.0 °F 50.0 °F 100% 29.53 in 10.0 mi SSW 12.7 mph 23.0 mph N/A   Overcast
10:53 PM 50.0 °F 48.9 °F 96% 29.52 in 10.0 mi SW 16.1 mph 24.2 mph 0.00 in   Clear
11:53 PM 48.9 °F 48.9 °F 100% 29.54 in 10.0 mi SSW 6.9 mph - N/A   Scattered Clouds